Flag for India Weather past 2 weeks in Bhinga, Uttar Pradesh, India

Now
99 °F

Scattered clouds.


Feels Like: 115 °F
Forecast: 75 / 99 °F
Wind: 12 mph from Northwest

Location: Lucknow / Amausi

Current Time: Sep 1, 2015 at 3:48:05 PM

Latest Report: Sep 1, 2015 at 3:00 PM


Visibility: 3 mi

Pressure: 29.53 "Hg

Humidity: 50%

Dew point: 77 °F

Location of BhingaLocation

Historic Weather in Bhinga — Graph

°F

Bhinga temperature yesterday

Maximum temperature yesterday: 99 °F (at 1:30 PM)
Minimum temperature yesterday: 82 °F (at 5:00 AM)
Average temperature yesterday: 90 °F

Past Weeks' High & Low Weather Summary

 TemperatureHumidityPressure
High99 °F (Aug 26, 1:00 PM)100% (Aug 18, 5:30 AM)29.68 "Hg (Aug 18, 5:30 AM)
Low75 °F (Aug 22, 8:30 AM)50% (Aug 25, 2:30 PM)29.50 "Hg (Aug 22, 5:00 PM)
Average88 °F80%29.59 "Hg
* Reported Aug 17 2:30 PM — Sep 1 2:30 PM, Bhinga, Weather by CustomWeather, © 2015

Note: Actual official high and low records may vary slightly from our data, if they occured in-between our weather recording intervals... More about our weather records

Advertising

Bhinga weather history for previous 24 hours

 ConditionsComfort  
Time TempWeatherWind HumidityBarometerVisibility
2:30 PM
Tue, Sep 1
99 °FScattered clouds.16 mph53%29.53 "Hg3 mi
2:00 PM99 °FScattered clouds.9 mph53%29.56 "Hg3 mi
1:30 PM97 °FScattered clouds.14 mph53%29.56 "Hg3 mi
1:00 PM97 °FScattered clouds.14 mph53%29.56 "Hg3 mi
12:00 PM95 °FScattered clouds.13 mph60%29.59 "Hg3 mi
11:30 AM95 °FScattered clouds.14 mph60%29.59 "Hg3 mi
11:00 AM95 °FScattered clouds.16 mph60%29.59 "Hg3 mi
10:30 AM93 °FHaze.14 mph63%29.59 "Hg3 mi
10:00 AM93 °FHaze.14 mph63%29.59 "Hg3 mi
9:30 AM91 °FHaze.14 mph63%29.59 "Hg3 mi
8:30 AM90 °FHaze.10 mph71%29.59 "Hg3 mi
8:00 AM88 °FHaze.7 mph75%29.59 "Hg2 mi
7:30 AM84 °FFog.5 mph84%29.56 "Hg2 mi
7:00 AM82 °FFog.6 mph89%29.56 "Hg2 mi
6:30 AM82 °FFog.5 mph89%29.56 "Hg2 mi
6:00 AM82 °FFog.2 mph89%29.56 "Hg2 mi
5:30 AM82 °FFog.5 mph89%29.56 "Hg2 mi
5:00 AM82 °FPassing clouds.2 mph89%29.56 "Hg2 mi
4:00 AM82 °FPassing clouds.No wind89%29.53 "Hg2 mi
3:00 AM82 °FPassing clouds.No wind89%29.53 "Hg2 mi
2:00 AM84 °FPassing clouds.No wind84%29.56 "Hg3 mi
1:00 AM84 °FPassing clouds.No wind84%29.56 "Hg3 mi
12:00 AM86 °FPartly cloudy.3 mph79%29.59 "Hg3 mi
11:00 PM
Mon, Aug 31
86 °FPartly cloudy.3 mph84%29.59 "Hg3 mi
10:00 PM86 °FPartly cloudy.3 mph84%29.59 "Hg3 mi
8:30 PM88 °FPassing clouds.3 mph79%29.59 "Hg3 mi
8:00 PM88 °FPassing clouds.5 mph79%29.56 "Hg3 mi
7:30 PM88 °FPassing clouds.3 mph79%29.56 "Hg3 mi
7:00 PM90 °FPassing clouds.2 mph75%29.53 "Hg3 mi
6:30 PM90 °FScattered clouds.2 mph75%29.53 "Hg3 mi
6:00 PM91 °FScattered clouds.3 mph71%29.53 "Hg3 mi
5:00 PM95 °FScattered clouds.9 mph63%29.53 "Hg3 mi
4:30 PM95 °FScattered clouds.9 mph63%29.53 "Hg3 mi
4:00 PM95 °FScattered clouds.8 mph63%29.53 "Hg3 mi
3:30 PM99 °FScattered clouds.12 mph57%29.53 "Hg3 mi
3:00 PM99 °FScattered clouds.7 mph57%29.53 "Hg3 mi
Weather by CustomWeather, © 2015

See weather overviewHow to use our weather pages